Weather History for KAVK - November, 2013

Change the Weather History Date:

Wednesday, November 20, 2013

  Actual Average Record
Temperature  
Mean Temperature 59 °F -  
Max Temperature 68 °F 59 °F 82 °F (1949)
Min Temperature 50 °F 34 °F 19 °F (1950)
Degree Days  
Heating Degree Days 6    
Growing Degree Days 9 (Base 50)    
Moisture  
Dew Point 44 °F    
Average Humidity 61    
Maximum Humidity 77    
Minimum Humidity 43    
Precipitation  
Precipitation 0.00 in - - ()
Sea Level Pressure  
Sea Level Pressure 29.80 in    
Wind  
Wind Speed 17 mph (South)    
Max Wind Speed 29 mph    
Max Gust Speed 36 mph    
Visibility 10 miles    
Events      
Averages and records for this station are not official NWS values.
T = Trace of Precipitation, MM = Missing Value Source: NWS Daily Summary

Daily Weather History Graph

Daily Weather History Graph

Search for Another Location

Airport or City:

Trip Planner

Search our weather history database for the weather conditions in past years. The results will help you decide how hot, cold, wet, or windy it might be!

Date:

Astronomy

Nov. 20, 2013 Rise Set
Actual Time 7:18 AM CST 5:22 PM CST
Civil Twilight 6:50 AM CST 5:50 PM CST
Nautical Twilight 6:18 AM CST 6:21 PM CST
Astronomical Twilight 5:47 AM CST 6:52 PM CST
Moon 8:06 PM CST (11/20) 9:44 AM CST (11/20)
Length of Visible Light 10h 59m
Length of Day
10h 04m
Waning Gibbous, 91% of the Moon is Illuminated
Nov 20
Waning Gibbous
Nov 25
Last Quarter
Dec 2
New
Dec 9
First Quarter
Dec 17
Full

Hourly Weather History & Observations

Time (CST) Temp. Dew Point Humidity Pressure Visibility Wind Dir Wind Speed Gust Speed Precip Events Conditions
12:10 AM 50.0 °F 28.4 °F 43% 29.83 in 10.0 mi South 21.9 mph 31.1 mph N/A   Overcast
12:30 AM 50.0 °F 28.4 °F 43% 29.82 in 10.0 mi South 20.7 mph 28.8 mph N/A   Overcast
12:50 AM 50.0 °F 30.2 °F 47% 29.82 in 10.0 mi South 19.6 mph - N/A   Overcast
1:10 AM 50.0 °F 30.2 °F 47% 29.81 in 10.0 mi South 19.6 mph 26.5 mph N/A   Overcast
1:30 AM 51.8 °F 32.0 °F 47% 29.81 in 10.0 mi South 21.9 mph 28.8 mph N/A   Overcast
1:50 AM 53.6 °F 32.0 °F 44% 29.80 in 10.0 mi South 21.9 mph 26.5 mph N/A   Overcast
2:10 AM 53.6 °F 32.0 °F 44% 29.80 in 10.0 mi South 25.3 mph 29.9 mph N/A   Overcast
2:30 AM 55.4 °F 33.8 °F 44% 29.79 in 10.0 mi South 24.2 mph 31.1 mph N/A   Mostly Cloudy
2:50 AM 55.4 °F 33.8 °F 44% 29.79 in 10.0 mi South 26.5 mph 29.9 mph N/A   Scattered Clouds
3:10 AM 55.4 °F 33.8 °F 44% 29.79 in 10.0 mi South 28.8 mph 34.5 mph N/A   Mostly Cloudy
3:30 AM 55.4 °F 35.6 °F 47% 29.78 in 10.0 mi South 26.5 mph 32.2 mph N/A   Scattered Clouds
3:50 AM 53.6 °F 35.6 °F 51% 29.77 in 10.0 mi South 25.3 mph 29.9 mph N/A   Mostly Cloudy
4:10 AM 53.6 °F 35.6 °F 51% 29.77 in 10.0 mi South 23.0 mph 29.9 mph N/A   Mostly Cloudy
4:30 AM 53.6 °F 37.4 °F 54% 29.77 in 10.0 mi South 27.6 mph 35.7 mph N/A   Mostly Cloudy
4:50 AM 53.6 °F 37.4 °F 54% 29.76 in 10.0 mi South 24.2 mph - N/A   Mostly Cloudy
5:10 AM 53.6 °F 37.4 °F 54% 29.76 in 10.0 mi South 23.0 mph 31.1 mph N/A   Scattered Clouds
5:30 AM 53.6 °F 37.4 °F 54% 29.76 in 10.0 mi South 21.9 mph 29.9 mph N/A   Scattered Clouds
5:50 AM 53.6 °F 39.2 °F 58% 29.76 in 10.0 mi South 21.9 mph 26.5 mph N/A   Mostly Cloudy
6:10 AM 53.6 °F 39.2 °F 58% 29.77 in 10.0 mi South 17.3 mph - N/A   Mostly Cloudy
6:30 AM 53.6 °F 39.2 °F 58% 29.77 in 10.0 mi South 17.3 mph - N/A   Mostly Cloudy
6:50 AM 53.6 °F 39.2 °F 58% 29.77 in 10.0 mi South 19.6 mph - N/A   Scattered Clouds
7:10 AM 53.6 °F 41.0 °F 62% 29.77 in 10.0 mi SSW 15.0 mph - N/A   Partly Cloudy
7:30 AM 51.8 °F 41.0 °F 67% 29.79 in 10.0 mi South 8.1 mph - N/A   Clear
7:50 AM 50.0 °F 41.0 °F 71% 29.81 in 10.0 mi SSW 6.9 mph - N/A   Clear
8:10 AM 50.0 °F 41.0 °F 71% 29.80 in 10.0 mi South 5.8 mph - N/A   Clear
8:30 AM 51.8 °F 42.8 °F 71% 29.81 in 10.0 mi South 5.8 mph - N/A   Clear
8:50 AM 55.4 °F 44.6 °F 67% 29.81 in 10.0 mi South 9.2 mph - N/A   Clear
9:10 AM 57.2 °F 44.6 °F 63% 29.82 in 10.0 mi SSW 15.0 mph - N/A   Clear
9:30 AM 57.2 °F 46.4 °F 67% 29.82 in 10.0 mi SSW 17.3 mph 21.9 mph N/A   Clear
9:50 AM 59.0 °F 46.4 °F 63% 29.82 in 10.0 mi SSW 15.0 mph - N/A   Clear
10:10 AM 59.0 °F 46.4 °F 63% 29.82 in 10.0 mi SSW 16.1 mph - N/A   Clear
10:30 AM 59.0 °F 46.4 °F 63% 29.82 in 10.0 mi SW 19.6 mph - N/A   Clear
10:50 AM 60.8 °F 46.4 °F 59% 29.82 in 10.0 mi SW 20.7 mph 25.3 mph N/A   Clear
11:10 AM 62.6 °F 48.2 °F 59% 29.82 in 10.0 mi SW 18.4 mph - N/A   Clear
11:30 AM 62.6 °F 48.2 °F 59% 29.81 in 10.0 mi SW 15.0 mph - N/A   Clear
11:50 AM 62.6 °F 48.2 °F 59% 29.80 in 10.0 mi SSW 12.7 mph - N/A   Clear
12:10 PM 64.4 °F 48.2 °F 56% 29.79 in 10.0 mi SSW 13.8 mph - N/A   Clear
12:30 PM 64.4 °F 48.2 °F 56% 29.78 in 10.0 mi WSW 12.7 mph - N/A   Clear
12:50 PM 66.2 °F 48.2 °F 52% 29.78 in 10.0 mi WSW 9.2 mph - N/A   Clear
1:10 PM 66.2 °F 48.2 °F 52% 29.77 in 10.0 mi SW 12.7 mph 18.4 mph N/A   Clear
1:30 PM 66.2 °F 48.2 °F 52% 29.77 in 10.0 mi SW 8.1 mph - N/A   Clear
1:50 PM 66.2 °F 48.2 °F 52% 29.76 in 10.0 mi WSW 4.6 mph - N/A   Clear
2:10 PM 66.2 °F 48.2 °F 52% 29.76 in 10.0 mi Calm Calm - N/A   Mostly Cloudy
2:30 PM 68.0 °F 50.0 °F 52% 29.76 in 10.0 mi South 6.9 mph - N/A   Overcast
2:50 PM 68.0 °F 50.0 °F 52% 29.76 in 10.0 mi ESE 5.8 mph - N/A   Overcast
3:10 PM 68.0 °F 50.0 °F 52% 29.76 in 10.0 mi SE 8.1 mph - N/A   Mostly Cloudy
3:30 PM 66.2 °F 51.8 °F 60% 29.76 in 10.0 mi SSE 5.8 mph - N/A   Mostly Cloudy
3:50 PM 66.2 °F 53.6 °F 64% 29.76 in 10.0 mi SSE 9.2 mph - N/A   Mostly Cloudy
4:10 PM 66.2 °F 53.6 °F 64% 29.77 in 10.0 mi SSE 9.2 mph - N/A   Mostly Cloudy
4:30 PM 66.2 °F 53.6 °F 64% 29.77 in 10.0 mi SSE 8.1 mph - N/A   Mostly Cloudy
4:50 PM 64.4 °F 53.6 °F 68% 29.78 in 10.0 mi South 16.1 mph - N/A   Mostly Cloudy
5:10 PM 64.4 °F 53.6 °F 68% 29.79 in 10.0 mi South 13.8 mph - N/A   Mostly Cloudy
5:30 PM 62.6 °F 53.6 °F 72% 29.79 in 10.0 mi South 11.5 mph - N/A   Partly Cloudy
5:50 PM 62.6 °F 53.6 °F 72% 29.80 in 10.0 mi South 13.8 mph - N/A   Mostly Cloudy
6:10 PM 60.8 °F 51.8 °F 72% 29.82 in 10.0 mi South 15.0 mph - N/A   Overcast
6:30 PM 59.0 °F 51.8 °F 77% 29.82 in 10.0 mi SSE 15.0 mph - N/A   Overcast
6:50 PM 59.0 °F 50.0 °F 72% 29.81 in 10.0 mi SSE 11.5 mph - N/A   Overcast
7:10 PM 59.0 °F 50.0 °F 72% 29.82 in 10.0 mi SSE 6.9 mph - N/A   Mostly Cloudy
7:30 PM 59.0 °F 50.0 °F 72% 29.82 in 10.0 mi SSE 8.1 mph - N/A   Mostly Cloudy
7:50 PM 57.2 °F 50.0 °F 77% 29.83 in 10.0 mi SSE 9.2 mph - N/A   Overcast
8:10 PM 57.2 °F 50.0 °F 77% 29.83 in 10.0 mi SSE 12.7 mph - N/A   Overcast
8:30 PM 57.2 °F 48.2 °F 72% 29.84 in 10.0 mi SSE 13.8 mph 18.4 mph N/A   Overcast
8:50 PM 55.4 °F 48.2 °F 77% 29.86 in 10.0 mi SSE 9.2 mph - N/A   Overcast
9:10 PM 55.4 °F 48.2 °F 77% 29.87 in 10.0 mi SSE 6.9 mph - N/A   Overcast
9:30 PM 55.4 °F 46.4 °F 72% 29.87 in 10.0 mi SSE 11.5 mph - N/A   Mostly Cloudy
9:50 PM 55.4 °F 46.4 °F 72% 29.87 in 10.0 mi SSE 9.2 mph - N/A   Overcast
10:10 PM 55.4 °F 46.4 °F 72% 29.88 in 10.0 mi SSE 11.5 mph - N/A   Mostly Cloudy
10:30 PM 55.4 °F 44.6 °F 67% 29.88 in 10.0 mi SSE 10.4 mph - N/A   Mostly Cloudy
10:50 PM 53.6 °F 44.6 °F 72% 29.88 in 10.0 mi SE 8.1 mph - N/A   Mostly Cloudy
11:10 PM 53.6 °F 44.6 °F 72% 29.88 in 10.0 mi SSE 8.1 mph - N/A   Overcast
11:30 PM 53.6 °F 44.6 °F 72% 29.88 in 10.0 mi ESE 6.9 mph - N/A   Overcast
11:50 PM 53.6 °F 44.6 °F 72% 29.89 in 10.0 mi SE 8.1 mph - N/A   Overcast